Regional Weather Roundup
Issued by NWS

Home | Current Version | Previous Version | Text Only | Print | Product List | Glossary On
Versions: 1 2 3 4 5 6 7 8 9 10 11 12 13 14 15 16 17 18 19 20 21 22 23 24 25 26 27 28 29 30 31 32 33 34 35 36 37 38 39 40 41 42 43 44 45 46 47 48 49
000
ASUS46 KPQR 271410
RWROR

OREGON REGIONAL WEATHER ROUNDUP
NATIONAL WEATHER SERVICE PORTLAND OR
700 AM PDT WED MAY 27 2015

NOTE: "FAIR" INDICATES FEW OR NO CLOUDS BELOW 12,000 FEET WITH
NO SIGNIFICANT WEATHER AND/OR OBSTRUCTIONS TO VISIBILITY.

ORZ001>013-271500-
NORTHWEST OREGON


CITY           SKY/WX    TMP DP  RH WIND       PRES   REMARKS
ASTORIA        CLOUDY    53  51  93 SW5       30.09R FOG
NEWPORT        CLOUDY    52  50  93 N3        30.11S FOG
PORTLAND       CLOUDY    56  53  90 CALM      30.07R
VANCOUVER WA   CLOUDY    55  51  86 VRB5      30.06R
SCAPPOOSE      CLOUDY    56  50  80 VRB3      30.06R
HILLSBORO      SUNNY     52  49  89 CALM      30.06R
AURORA         SUNNY     53  50  89 CALM      30.07S
MCMINNVILLE    SUNNY     52  49  89 W5        30.07S
SALEM          SUNNY     53  50  89 CALM      30.05S
CORVALLIS      SUNNY     52  48  87 NW5       30.07S
EUGENE         MOSUNNY   49  45  86 CALM      30.08R FOG
$$

ORZ021-028-271500-
SOUTHWEST OREGON


CITY           SKY/WX    TMP DP  RH WIND       PRES   REMARKS
NORTH BEND     CLOUDY    52  50  93 NE5       30.10R
BROOKINGS      CLOUDY    50  50 100 CALM      30.05R FOG
ROSEBURG       SUNNY     52  48  86 CALM      30.07R
SEXTON SUMMIT  SUNNY     49  42  77 N8        30.05S
MEDFORD        SUNNY     52  44  74 CALM      30.05R
$$

ORZ014>016-041-271500-
COLUMBIA GORGE


CITY           SKY/WX    TMP DP  RH WIND       PRES   REMARKS
TROUTDALE      CLOUDY    56  52  86 CALM      30.05S
THE DALLES     SUNNY     58  48  69 CALM      30.02R
$$

ORZ029>031-041-044-049-050-061>064-502-503-505>511-271500-
EASTERN OREGON


CITY           SKY/WX    TMP DP  RH WIND       PRES   REMARKS
REDMOND        SUNNY     48  42  80 S3        30.05S
BEND           SUNNY     48  41  76 CALM      30.06S
PRINEVILLE     SUNNY     48  43  81 CALM      30.05S
KLAMATH FALLS  SUNNY     43  38  82 CALM      30.06R
LAKEVIEW       SUNNY     45  37  76 CALM      30.09S
HERMISTON      CLOUDY    57  51  80 CALM      30.01R
PENDLETON      CLOUDY    53  49  86 E5        30.02R
JOHN DAY       SUNNY     50  44  79 SE7       30.06R
MEACHAM        MOSUNNY   40  37  89 CALM      30.06R
LA GRANDE      MOSUNNY   50  39  66 CALM      30.03S
BAKER CITY     PTSUNNY   51  45  79 S3        30.03S
BURNS          MOSUNNY   51  42  71 W5        30.05S
ROME             N/A     51  44  77 S3        30.03R
ONTARIO        SUNNY     57  50  77 SW3       30.00R
$$


USA.gov is the U.S. government's official web portal to all federal, state and local government web resources and services.